Location: Hurecourt
(47.9030°N, 6.0653°E)
Time: 08:03:22
(UTC+00:00)

Cosmos 2061 Rocket - Pass Details

Date: 14 July 2020
Orbit: 965 x 1013 km, 82.9° (Epoch: 15 August)

Event Time Altitude Azimuth Distance (km) Brightness Sun altitude
Exits shadow 01:41:57 22° 198° (SSW) 2,036 5.1 -15.4°
Maximum altitude 01:46:16 74° 280° (W) 1,036 4.1 -15.1°
Drops below altitude 10° 01:52:35 10° 6° (N) 2,750 7.4 -14.5°
Sets 01:55:07 0° 8° (N) 3,696 8.3 -14.3°
